Weather History for KVCB - June, 2013

Change the Weather History Date:

Wednesday, June 12, 2013

  Actual Average Record
Temperature  
Mean Temperature 72 °F -  
Max Temperature 89 °F 86 °F 106 °F (2015)
Min Temperature 55 °F 53 °F 36 °F (1952)
Cooling Degree Days 6    
Growing Degree Days 22 (Base 50)    
Moisture  
Dew Point 47 °F    
Average Humidity 45    
Maximum Humidity 75    
Minimum Humidity 22    
Precipitation  
Precipitation 0.00 in - - ()
Sea Level Pressure  
Sea Level Pressure 29.90 in    
Wind  
Wind Speed 6 mph (SW)    
Max Wind Speed 20 mph    
Max Gust Speed 26 mph    
Visibility 10 miles    
Events      
Averages and records for this station are not official NWS values.
T = Trace of Precipitation, MM = Missing Value Source: NWS Daily Summary

Daily Weather History Graph

Daily Weather History Graph

Search for Another Location

Airport or City:

Trip Planner

Search our weather history database for the weather conditions in past years. The results will help you decide how hot, cold, wet, or windy it might be!

Date:

Astronomy

Jun. 12, 2013 Rise Set
Actual Time 5:43 AM PDT 8:32 PM PDT
Civil Twilight 5:11 AM PDT 9:03 PM PDT
Nautical Twilight 4:32 AM PDT 9:43 PM PDT
Astronomical Twilight 3:47 AM PDT 10:28 PM PDT
Moon 9:25 AM PDT (6/12) 11:13 PM PDT (6/12)
Length of Visible Light 15h 51m
Length of Day
14h 48m
Waxing Crescent, 15% of the Moon is Illuminated
Jun 12
Waxing Crescent
Jun 16
First Quarter
Jun 23
Full
Jun 29
Last Quarter
Jul 8
New

Hourly Weather History & Observations

Time (PDT) Temp. Dew Point Humidity Pressure Visibility Wind Dir Wind Speed Gust Speed Precip Events Conditions
12:53 AM 64.0 °F 52.0 °F 65% 29.86 in 10.0 mi South 3.5 mph - N/A   Clear
1:53 AM 63.0 °F 52.0 °F 67% 29.87 in 10.0 mi SW 5.8 mph - N/A   Clear
2:53 AM 61.0 °F 50.0 °F 67% 29.86 in 10.0 mi WSW 8.1 mph - N/A   Clear
3:53 AM 59.0 °F 50.0 °F 72% 29.86 in 10.0 mi SW 6.9 mph - N/A   Clear
4:53 AM 57.0 °F 48.9 °F 74% 29.87 in 10.0 mi Calm Calm - N/A   Clear
5:53 AM 55.9 °F 48.0 °F 75% 29.89 in 10.0 mi Calm Calm - N/A   Clear
6:53 AM 59.0 °F 48.9 °F 69% 29.91 in 10.0 mi SW 3.5 mph - N/A   Clear
7:53 AM 64.9 °F 48.9 °F 56% 29.92 in 10.0 mi SW 5.8 mph - N/A   Clear
8:53 AM 71.1 °F 48.9 °F 45% 29.93 in 10.0 mi Calm Calm - N/A   Clear
9:53 AM 73.9 °F 48.9 °F 41% 29.94 in 10.0 mi ENE 4.6 mph - N/A   Clear
10:53 AM 77.0 °F 48.0 °F 36% 29.94 in 10.0 mi Calm Calm - N/A   Clear
11:53 AM 80.1 °F 48.0 °F 32% 29.94 in 10.0 mi Variable 3.5 mph - N/A   Clear
12:53 PM 82.9 °F 48.0 °F 29% 29.92 in 10.0 mi WSW 6.9 mph - N/A   Clear
1:53 PM 84.9 °F 48.0 °F 28% 29.91 in 10.0 mi South 9.2 mph - N/A   Clear
2:53 PM 88.0 °F 45.0 °F 22% 29.89 in 10.0 mi WSW 11.5 mph 17.3 mph N/A   Clear
3:53 PM 84.9 °F 46.0 °F 26% 29.88 in 10.0 mi SSW 16.1 mph 26.5 mph N/A   Clear
4:53 PM 86.0 °F 45.0 °F 24% 29.88 in 10.0 mi SW 18.4 mph 23.0 mph N/A   Clear
5:53 PM 82.9 °F 42.1 °F 24% 29.88 in 10.0 mi SW 19.6 mph 26.5 mph N/A   Clear
6:53 PM 78.1 °F 46.0 °F 32% 29.88 in 10.0 mi SW 13.8 mph 19.6 mph N/A   Clear
7:53 PM 75.9 °F 42.1 °F 30% 29.88 in 10.0 mi SW 15.0 mph 21.9 mph N/A   Clear
8:53 PM 72.0 °F 41.0 °F 33% 29.89 in 10.0 mi WSW 8.1 mph 17.3 mph N/A   Clear
9:53 PM 68.0 °F 42.1 °F 39% 29.91 in 10.0 mi SW 11.5 mph - N/A   Clear
10:53 PM 66.0 °F 42.1 °F 42% 29.91 in 10.0 mi SW 9.2 mph - N/A   Clear
11:53 PM 63.0 °F 41.0 °F 45% 29.92 in 10.0 mi WSW 9.2 mph - N/A   Clear